This is the latest recevied weather packets stored in our database for station/object IK2ILW-6. If no packets are shown the sender has not sent any weather packets the latest 1 day(s).
| Time | Temp. | Humidity | Pressure | Rain* | Wind** | Luminosity | Snow |
|---|---|---|---|---|---|---|---|
| 1778028399 | 3.33° C | 97% | 1011.6 hPa | 7.87 mm | 5.36 m/s, 129° | 0 W/m² | - |
| 1778028102 | 3.33° C | 97% | 1011.7 hPa | 7.87 mm | 3.58 m/s, 134° | 0 W/m² | - |
| 1778027791 | 3.33° C | 97% | 1011.7 hPa | 7.87 mm | 5.81 m/s, 142° | 0 W/m² | - |
| 1778027495 | 3.33° C | 97% | 1011.6 hPa | 7.87 mm | 5.36 m/s, 303° | 0 W/m² | - |
| 1778027199 | 3.33° C | 97% | 1011.7 hPa | 7.87 mm | 4.92 m/s, 117° | 0 W/m² | - |
| 1778026885 | 3.33° C | 97% | 1011.9 hPa | 5.08 mm | 4.92 m/s, 128° | 0 W/m² | - |
| 1778026590 | 3.33° C | 97% | 1012 hPa | 4.06 mm | 4.92 m/s, 121° | 0 W/m² | - |
| 1778026295 | 3.33° C | 97% | 1012.1 hPa | 4.06 mm | 5.36 m/s, 155° | 0 W/m² | - |
| 1778026000 | 3.89° C | 97% | 1012 hPa | 5.08 mm | 6.26 m/s, 124° | 0 W/m² | - |
| 1778025686 | 3.33° C | 97% | 1012 hPa | 6.1 mm | 4.47 m/s, 126° | 0 W/m² | - |
| 1778025391 | 3.33° C | 97% | 1011.9 hPa | 6.1 mm | 6.71 m/s, 126° | 0 W/m² | - |
| 1778025096 | 3.33° C | 97% | 1012 hPa | 6.1 mm | 4.92 m/s, 123° | 0 W/m² | - |
| 1778024785 | 3.33° C | 97% | 1012 hPa | 5.08 mm | 4.02 m/s, 126° | 0 W/m² | - |
| 1778024490 | 3.33° C | 97% | 1012 hPa | 8.89 mm | 4.47 m/s, 53° | 0 W/m² | - |
| 1778024194 | 3.33° C | 96% | 1012.1 hPa | 7.87 mm | 3.58 m/s, 141° | 0 W/m² | - |
| 1778023899 | 3.33° C | 96% | 1012.3 hPa | 7.87 mm | 4.02 m/s, 161° | 0 W/m² | - |
| 1778023584 | 3.33° C | 96% | 1012.2 hPa | 7.87 mm | 5.36 m/s, 148° | 0 W/m² | - |
| 1778023289 | 3.33° C | 96% | 1012.2 hPa | 7.87 mm | 3.58 m/s, 71° | 0 W/m² | - |
| 1778022994 | 3.33° C | 96% | 1012.1 hPa | 7.87 mm | 1.79 m/s, 15° | 0 W/m² | - |
| 1778022699 | 3.33° C | 96% | 1012.3 hPa | 7.87 mm | 1.79 m/s, 61° | 0 W/m² | - |
| 1778022384 | 3.33° C | 96% | 1012.5 hPa | 7.87 mm | 1.34 m/s, 166° | 0 W/m² | - |
| 1778022090 | 3.33° C | 96% | 1012.5 hPa | 6.1 mm | 0.89 m/s, 182° | 0 W/m² | - |
| 1778021794 | 3.33° C | 96% | 1012.5 hPa | 6.1 mm | 0.45 m/s, 190° | 0 W/m² | - |
| 1778021484 | 3.33° C | 96% | 1012.5 hPa | 6.1 mm | 1.79 m/s, 178° | 0 W/m² | - |
| 1778021189 | 3.33° C | 96% | 1012.4 hPa | 4.06 mm | 3.13 m/s, 132° | 0 W/m² | - |
* Rain latest hour (hover to see other rain measurements)
** Current wind speed in m/s (hover to see current wind gust speed)